Skip Page Navigation
NASA JPL Caltech
NASA Logo - Jet Propulsion Laboratory + View the NASA Portal
+ Center for Near-Earth Object Studies
JPL Home Earth Solar System Stars & Galaxies Technology
JPL Solar System Dynamics
BODIES ORBITS EPHEMERIDES TOOLS PHYSICAL DATA DISCOVERY FAQ SITE MAP
JPL Small-Body Database Browser
Search: [ help ]  
233444 (2006 HP93)
Classification: Main-belt Asteroid          SPK-ID: 2233444
Ephemeris | Orbit Diagram | Orbital Elements | Mission Design | Physical Parameters | Discovery Circumstances ]

[ show orbit diagram ]
Orbital Elements at Epoch 2459000.5 (2020-May-31.0) TDB
Reference: JPL 14 (heliocentric ecliptic J2000)
 Element Value Uncertainty (1-sigma)   Units 
e .1761433195716455 8.4169e-08  
a 2.751456640306597 2.4926e-08 au
q 2.266805934025546 2.3597e-07 au
i 14.36404469281731 9.893e-06 deg
node 179.9127664399429 2.1129e-05 deg
peri 171.7888772791393 2.5773e-05 deg
M 287.27421641689 1.671e-05 deg
tp 2459337.266082711874
(2021-May-02.76608271)
7.9758e-05 TDB
period 1667.026243006762
4.56
2.2653e-05
6.202e-08
d
yr
n .2159534089581454 2.9345e-09 deg/d
Q 3.236107346587648 2.9316e-08 au
  Orbit Determination Parameters
   # obs. used (total)      278  
   data-arc span      8005 days (21.92 yr)  
   first obs. used      1997-05-29  
   last obs. used      2019-04-29  
   planetary ephem.      DE431  
   SB-pert. ephem.      SB431-N16  
   condition code      0  
   norm. resid. RMS      .68148  
   source      ORB  
   producer      Otto Matic  
   solution date      2019-Jul-14 07:15:31  

Additional Information
 Earth MOID = 1.26276 au 
 Jupiter MOID = 2.22086 au 
 T_jup = 3.278 
[ show covariance matrix ]

Ephemeris | Orbit Diagram | Orbital Elements | Mission Design | Physical Parameters | Discovery Circumstances ]

Physical Parameter Table
Parameter Symbol Value Units Sigma Reference Notes
absolute magnitude H 15.8   n/a MPO470485  

233444 (2006 HP93)          Discovered 2006-Apr-29 by Spacewatch at Kitt Peak
Reference: 20100228/Numbers.arcLast Updated: 2010-03-03

Alternate Designations
 2006 HP93 = 1997 KE2 
Ephemeris | Orbit Diagram | Orbital Elements | Mission Design | Physical Parameters | Discovery Circumstances ]
ABOUT SSD CREDITS/AWARDS PRIVACY/COPYRIGHT GLOSSARY LINKS
FirstGov 2020-Jul-13 05:51 UT
(server date/time)  
NASA Home Page
Site Manager:   Ryan S. Park
Webmaster  Alan B. Chamberlin